Regional Weather Roundup
Issued by NWS

Home | Current Version | Previous Version | Graphics & Text | Print | Product List | Glossary Off
Versions: 1 2 3 4 5 6 7 8 9 10 11 12 13 14 15 16 17 18 19 20 21 22 23 24 25 26 27 28 29 30 31 32 33 34 35 36 37 38 39 40 41 42 43 44 45 46 47 48 49 50

000
ASUS43 KMKX 250021
RWRWI

WISCONSIN REGIONAL WEATHER ROUNDUP
NATIONAL WEATHER SERVICE MILWAUKEE/SULLIVAN WI
700 PM CDT SUN JUL 24 2016

NOTE: "FAIR" INDICATES FEW OR NO CLOUDS BELOW 12,000 FEET WITH NO
SIGNIFICANT WEATHER AND/OR OBSTRUCTIONS TO VISIBILITY.

WIZ001-002-006>008-014>016-023>028-250100-
NORTHWEST WISCONSIN

CITY           SKY/WX    TMP DP  RH WIND       PRES   REMARKS
SUPERIOR ARPT  SUNNY     79  62  56 W8        29.84S HX  81
6HR MIN TEMP:  77; 6HR MAX TEMP:  83;

ASHLAND        MOSUNNY   80  61  52 W12       29.85R HX  81
6HR MIN TEMP:  80; 6HR MAX TEMP:  85;

HAYWARD        MOSUNNY   78  60  53 W9G16     29.89S
6HR MIN TEMP:  78; 6HR MAX TEMP:  81;

SIREN          NOT AVBL
CUMBERLAND     MOSUNNY   75  59  57 W9        29.92S
RICE LAKE      MOSUNNY   76  62  63 W6        29.92F
6HR MIN TEMP:  76; 6HR MAX TEMP:  80;

CHETEK         MOSUNNY   77  63  61 MISG      29.91F
6HR MIN TEMP:  77; 6HR MAX TEMP:  83;

LADYSMITH      SUNNY     78  62  57 W8        29.92S
6HR MIN TEMP:  78; 6HR MAX TEMP:  83;

EAU CLAIRE     SUNNY     79  63  57 NW6       29.89F HX  80
6HR MIN TEMP:  79; 6HR MAX TEMP:  86;

MENOMONIE      SUNNY     82  61  48 W10G20    29.91S HX  82
6HR MIN TEMP:  82; 6HR MAX TEMP:  86;

NEW RICHMOND   MOSUNNY   77  63  60 W7        29.92F
6HR MIN TEMP:  77; 6HR MAX TEMP:  83;

OSCEOLA        CLOUDY    81  62  53 W8        29.94F HX  82
6HR MIN TEMP:  79; 6HR MAX TEMP:  83;

$$

WIZ003>005-009-010-017-018-250100-
NORTH CENTRAL WISCONSIN

CITY           SKY/WX    TMP DP  RH WIND       PRES   REMARKS
MANITOWISH WTR MOSUNNY   76  62  62 W7        29.88R
6HR MIN TEMP:  76; 6HR MAX TEMP:  83;

ARBOR VITAE    MOSUNNY   79  65  60 W6        29.88S HX  81
6HR MIN TEMP:  78; 6HR MAX TEMP:  82;

WOODRUFF       MOSUNNY   79  65  60 W6        29.88S HX  81
6HR MIN TEMP:  78; 6HR MAX TEMP:  82;

RHINELANDER    SUNNY     78  62  57 W15G24    29.88R HX  80
6HR MIN TEMP:  78; 6HR MAX TEMP:  85;

EAGLE RIVER    MOSUNNY   78  60  53 W9G18     29.86R HX  80
6HR MIN TEMP:  77; 6HR MAX TEMP:  82;

LAND O LAKES   MOSUNNY   79  60  51 W10G17    29.87R HX  80
6HR MIN TEMP:  78; 6HR MAX TEMP:  83;

PHILLIPS       CLOUDY    77  64  62 W7        29.89S
6HR MIN TEMP:  77; 6HR MAX TEMP:  82;

TOMAHAWK       MOSUNNY   77  63  62 W10       29.89R
6HR MIN TEMP:  77; 6HR MAX TEMP:  82;

MEDFORD        SUNNY     77  62  59 W15G23    29.90S
6HR MIN TEMP:  77; 6HR MAX TEMP:  82;

MERRILL        SUNNY     80  65  61 W9        29.88R HX  82
6HR MIN TEMP:  78; 6HR MAX TEMP:  84;

$$

WIZ029-030-035-036-043>047-250100-
CENTRAL WISCONSIN

CITY           SKY/WX    TMP DP  RH WIND       PRES   REMARKS
WAUSAU         SUNNY     81  63  54 W14G24    29.86R HX  82
6HR MIN TEMP:  76; 6HR MAX TEMP:  85; 6HR PCP: TRACE;

MOSINEE        SUNNY     81  64  57 W16G23    29.89R HX  82
MARSHFIELD     CLOUDY    80  64  58 W8        29.89S HX  82
6HR MIN TEMP:  80; 6HR MAX TEMP:  86;

STEVENS POINT  MOSUNNY   81  64  57 W9G17     29.88S HX  83
6HR MIN TEMP:  75; 6HR MAX TEMP:  84;

WAUPACA        MOSUNNY   84  65  52 W7        29.85S HX  86
6HR MIN TEMP:  84; 6HR MAX TEMP:  90;

WAUTOMA        MOSUNNY   84  68  58 W8        29.87R HX  87
6HR MIN TEMP:  84; 6HR MAX TEMP:  90;

WISC RAPIDS    MOSUNNY   83  62  49 NW10G20   29.89R HX  84
6HR MIN TEMP:  83; 6HR MAX TEMP:  88;

CAMP DOUGLAS   PTSUNNY   80  69  67 W8        29.89R HX  83
6HR MIN TEMP:  80; 6HR MAX TEMP:  87;

$$

WIZ011>013-019>022-031-037>040-048>050-250100-
NORTHEAST WISCONSIN

CITY           SKY/WX    TMP DP  RH WIND       PRES   REMARKS
ANTIGO         MOSUNNY   78  65  62 W13G21    29.88R HX  80
6HR MIN TEMP:  74; 6HR MAX TEMP:  83;

SHAWANO        SUNNY     84  65  53 W7        29.84R HX  86
6HR MIN TEMP:  81; 6HR MAX TEMP:  87;

OCONTO         SUNNY     84  75  73 W7        29.79R HX  92
6HR MIN TEMP:  79; 6HR MAX TEMP:  86;

STURGEON BAY   SUNNY     84  75  74 W8        29.80R HX  92
6HR MIN TEMP:  75; 6HR MAX TEMP:  85;

GREEN BAY      SUNNY     83  73  72 W10       29.81R HX  89
6HR MIN TEMP:  76; 6HR MAX TEMP:  86; 6HR PCP:  0.03;

MANITOWOC      SUNNY     86  73  65 MISG      29.81R HX  93
6HR MIN TEMP:  73; 6HR MAX TEMP:  87; 6HR PCP:  0.17;

APPLETON       MOSUNNY   81  64  57 NW10      29.84R HX  82
CLINTONVILLE   SUNNY     81  63  54 W14G20    29.84R HX  82
OSHKOSH        SUNNY     84  70  62 W10       29.83R HX  88
6HR MIN TEMP:  83; 6HR MAX TEMP:  89;

$$

WIZ032>034-041-042-053>061-250100-
SOUTHWEST WISCONSIN

CITY           SKY/WX    TMP DP  RH WIND       PRES   REMARKS
LA CROSSE      MOSUNNY   83  66  56 W6        29.89F HX  85
6HR MIN TEMP:  83; 6HR MAX TEMP:  89;

SPARTA         MOSUNNY   81  64  57 W7        29.91F HX  83
6HR MIN TEMP:  81; 6HR MAX TEMP:  87;

VIROQUA        MOSUNNY   80  64  57 NW7       29.93F HX  81
6HR MIN TEMP:  79; 6HR MAX TEMP:  85;

BOSCOBEL       CLOUDY    82  67  60 W6        29.91S HX  84
6HR MIN TEMP:  82; 6HR MAX TEMP:  92;

PRAIRIE DU CHI CLOUDY    80  64  59 W7        29.91S HX  82
6HR MIN TEMP:  80; 6HR MAX TEMP:  88;

PLATTEVILLE    SUNNY     81  70  68 NW17G24   29.92F HX  85
6HR MIN TEMP:  81; 6HR MAX TEMP:  87;

$$

WIZ056-057-062-063-064-067-068-250100-
SOUTH CENTRAL WISCONSIN

CITY           SKY/WX    TMP DP  RH WIND       PRES   REMARKS
REEDSBURG      MOSUNNY   81  69  65 W14       29.89R HX  84
BARABOO/DELLS  MOSUNNY   82  65  56 NW7       29.89S HX  84
6HR MIN TEMP:  82; 6HR MAX TEMP:  88;

LONE ROCK      PTSUNNY   83  67  58 W13       29.90R HX  85
6HR MIN TEMP:  83; 6HR MAX TEMP:  89;

MINERAL POINT  MOSUNNY   81  68  65 W9G17     29.92S HX  83
MADISON        PTSUNNY   86  71  60 NW12G20   29.86R HX  91
6HR MIN TEMP:  85; 6HR MAX TEMP:  90;

MIDDLETON      SUNNY     85  71  63 NW9       29.88R HX  90
6HR MIN TEMP:  85; 6HR MAX TEMP:  91;

WATERTOWN      MOSUNNY   86  77  75 W8        29.84S HX  97
6HR MIN TEMP:  86; 6HR MAX TEMP:  91;

MONROE         PTSUNNY   86  75  70 NW14G20   29.89R HX  95
JANESVILLE     PTSUNNY   91  77  62 W9        29.84F HX 105
$$

WIZ051-052-058>065-066-070>072-250100-
SOUTHEAST WISCONSIN

CITY           SKY/WX    TMP DP  RH WIND       PRES   REMARKS
MILWAUKEE      CLOUDY    92  77  61 W13G21    29.81S HX 105
6HR MIN TEMP:  88; 6HR MAX TEMP:  94; 6HR PCP: TRACE;

WAUKESHA       MOSUNNY   86  75  70 W17       29.84S HX  95
MILWAUKEE/TIMM SUNNY     90  73  58 W14       29.82S HX  98
RACINE         CLOUDY    86  75  69 SW5       29.83F HX  95
6HR MIN TEMP:  80; 6HR MAX TEMP:  89; 6HR PCP:  0.12;

BURLINGTON     CLOUDY    87  79  76 W6        29.83R HX 101
6HR MIN TEMP:  87; 6HR MAX TEMP:  97;

KENOSHA        CLOUDY    90  77  65 W12       29.84S HX 103
6HR MIN TEMP:  81; 6HR MAX TEMP:  95; 6HR PCP:  0.09;

FOND DU LAC    SUNNY     86  73  65 W10       29.84R HX  93
6HR MIN TEMP:  83; 6HR MAX TEMP:  90; 6HR PCP: TRACE;

SHEBOYGAN      MOSUNNY   87  75  67 W8        29.81R HX  96
6HR MIN TEMP:  74; 6HR MAX TEMP:  89;

WEST BEND      MOSUNNY   86  72  62 W13G20    29.83S HX  92
JUNEAU         MOSUNNY   84  72  68 W5        29.86S HX  89
6HR MIN TEMP:  83; 6HR MAX TEMP:  88;

$$

LSZ147-162-250100-
LAKE SUPERIOR

STATION/POSITION TIME  TEMP    WIND        PRES    WAVE
                       AIR SEA DIR/SP/G            HT/PER
                 (UTC) (F)     (DEG/KT/KT) (MB)    (FT/S)
W MID LAKE BUOY  2350   64 58  250/ 12/ 14 1007.9R   2/ 4
DEVILS ISLAND    0000   69     240/ 17/ 19 1009.2R
SAXON HARBOR     2340   81     280/  8/ 16 1010.2R
$$

LMZ867-665-643>646-250100-
LAKE MICHIGAN

STATION/POSITION TIME  TEMP    WIND        PRES    WAVE
                       AIR SEA DIR/SP/G            HT/PER
                 (UTC) (F)     (DEG/KT/KT) (MB)    (FT/S)
CHAMBERS ISLAND  2300   79     170/C1F1C2F2C3F3C4F4C5F5C6F6C7F7C8M1C9M2Ca!



USA.gov is the U.S. government's official web portal to all federal, state and local government web resources and services.